Flag for Canada Weather past 2 weeks in Kamloops, British Columbia, Canada

Now
37 °F

Overcast.


Feels Like: 37 °F
Forecast: 29 / 36 °F
Wind: 2 mph from North

Location: Kamloops

Current Time: Jan 29, 2015 at 4:54:06 PM

Latest Report: Jan 29, 2015 at 4:00 PM


Visibility: 30 mi

Pressure: 30.47 "Hg

Humidity: 70%

Dew point: 28 °F

Location of KamloopsLocation

Historic Weather in Kamloops — Graph

°F

Kamloops temperature yesterday

Maximum temperature yesterday: 36 °F (at 12:00 AM)
Minimum temperature yesterday: 34 °F (at 6:00 AM)
Average temperature yesterday: 35 °F

Past Weeks' High & Low Weather Summary

 TemperatureHumidityPressure
High45 °F (Jan 18, 5:00 PM)100% (Jan 18, 1:56 AM)30.60 "Hg (Jan 18, 1:56 AM)
Low21 °F (Jan 20, 5:02 AM)57% (Jan 18, 5:00 PM)29.60 "Hg (Jan 18, 6:00 AM)
Average34 °F82%30.21 "Hg
* Reported Jan 14 3:00 PM — Jan 29 3:00 PM, Kamloops, Weather by CustomWeather, © 2014

Note: Actual official high and low records may vary slightly from our data, if they occured in-between our weather recording intervals... More about our weather records

Advertising

Kamloops weather history for previous 24 hours

 ConditionsComfort  
Time TempWeatherWind HumidityBarometerVisibility
3:00 PM
Jan 29
37 °FOvercast.2 mph70%30.48 "Hg30 mi
2:00 PM37 °FOvercast.2 mph70%30.48 "Hg30 mi
1:00 PM37 °FOvercast.No wind70%30.50 "Hg30 mi
12:00 PM36 °FOvercast.2 mph75%30.51 "Hg30 mi
11:00 AM36 °FOvercast.5 mph75%30.53 "Hg30 mi
10:00 AM36 °FOvercast.7 mph75%30.48 "Hg30 mi
9:00 AM34 °FOvercast.5 mph81%30.51 "Hg30 mi
8:00 AM34 °FOvercast.6 mph81%30.51 "Hg30 mi
7:00 AM34 °FMostly cloudy.5 mph81%30.50 "Hg15 mi
6:00 AM34 °FOvercast.6 mph81%30.50 "Hg15 mi
5:00 AM36 °FOvercast.7 mph75%30.50 "Hg15 mi
4:00 AM36 °FOvercast.2 mph75%30.50 "Hg15 mi
3:00 AM36 °FOvercast.3 mph75%30.50 "Hg15 mi
2:00 AM36 °FOvercast.9 mph81%30.50 "Hg15 mi
1:00 AM36 °FOvercast.7 mph81%30.50 "Hg15 mi
12:00 AM36 °FOvercast.3 mph87%30.50 "Hg15 mi
11:00 PM
Jan 28
36 °FOvercast.5 mph87%30.50 "Hg15 mi
10:00 PM36 °FOvercast.6 mph87%30.50 "Hg15 mi
9:00 PM36 °FOvercast.6 mph87%30.49 "Hg15 mi
8:00 PM36 °FOvercast.6 mph87%30.49 "Hg15 mi
7:48 PM36 °FOvercast.5 mph87%30.49 "Hg15 mi
7:00 PM36 °FOvercast.2 mph81%30.49 "Hg15 mi
6:00 PM36 °FOvercast.2 mph87%30.50 "Hg15 mi
5:00 PM36 °FMostly cloudy.2 mph81%30.49 "Hg15 mi
4:00 PM36 °FMore clouds than sun.6 mph87%30.49 "Hg15 mi
Weather by CustomWeather, © 2014

See weather overviewHow to use our weather pages